Location: Unspecified
(41.1850°N, 73.2650°W)
Time: 01:16:12
(UTC+00:00)

Cosmos 1244 Rocket - Pass Details

Date: 14 December 2025
Orbit: 952 x 997 km, 83.0° (Epoch: 14 January)

Event Time Altitude Azimuth Distance (km) Brightness Sun altitude
Rises 23:09:47 0° 352° (N) 3,689 7.5 -19.0°
Reaches altitude 10° 23:12:19 10° 352° (N) 2,731 6.8 -19.5°
Maximum altitude 23:18:35 86° 266° (W) 975 4.5 -20.6°
Drops below altitude 10° 23:24:44 10° 176° (S) 2,684 6.9 -21.7°
Sets 23:27:12 0° 176° (S) 3,621 7.6 -22.2°
